Weather History for PHHI - May, 2013

Change the Weather History Date:

Thursday, May 23, 2013

  Actual Average Record
Temperature  
Mean Temperature 74 °F -  
Max Temperature 84 °F 77 °F 84 °F (2002)
Min Temperature 64 °F 64 °F 60 °F (2000)
Cooling Degree Days 9    
Growing Degree Days 24 (Base 50)    
Moisture  
Dew Point 65 °F    
Average Humidity 74    
Maximum Humidity 95    
Minimum Humidity 48    
Precipitation  
Precipitation 0.00 in - - ()
Sea Level Pressure  
Sea Level Pressure 30.01 in    
Wind  
Wind Speed 3 mph (NE)    
Max Wind Speed 12 mph    
Max Gust Speed -    
Visibility 10 miles    
Events      
Averages and records for this station are not official NWS values.
T = Trace of Precipitation, MM = Missing Value Source: NWS Daily Summary

Daily Weather History Graph

Daily Weather History Graph

Search for Another Location

Airport or City:

Trip Planner

Search our weather history database for the weather conditions in past years. The results will help you decide how hot, cold, wet, or windy it might be!

Date:

Astronomy

May. 23, 2013 Rise Set
Actual Time 5:50 AM HST 7:07 PM HST
Civil Twilight 5:26 AM HST 7:31 PM HST
Nautical Twilight 4:57 AM HST 8:00 PM HST
Astronomical Twilight 4:28 AM HST 8:30 PM HST
Moon 5:59 PM HST (5/23) 4:33 AM HST (5/23)
Length of Visible Light 14h 04m
Length of Day
13h 16m
Waxing Gibbous, 98% of the Moon is Illuminated
May 23
Waxing Gibbous
May 24
Full
May 31
Last Quarter
Jun 8
New
Jun 16
First Quarter

Hourly Weather History & Observations

Time (HST) Temp. Heat Index Dew Point Humidity Pressure Visibility Wind Dir Wind Speed Gust Speed Precip Events Conditions
12:55 AM 68.5 °F - 67.1 °F 95% 30.01 in 10.0 mi NNW 3.5 mph - N/A   Overcast
1:55 AM 67.8 °F - 66.2 °F 95% 30.00 in 10.0 mi Calm Calm - N/A   Clear
2:55 AM 66.7 °F - 64.8 °F 93% 29.99 in 10.0 mi Calm Calm - N/A   Clear
3:55 AM 65.5 °F - 63.1 °F 92% 29.99 in 10.0 mi Calm Calm - N/A   Partly Cloudy
4:55 AM 64.6 °F - 62.2 °F 92% 29.99 in 10.0 mi NNW 3.5 mph - N/A   Clear
5:55 AM 64.8 °F - 62.4 °F 92% 30.00 in 10.0 mi Calm Calm - N/A   Clear
6:55 AM 67.1 °F - 63.9 °F 89% 30.02 in 10.0 mi Calm Calm - N/A   Clear
7:55 AM 72.9 °F - 65.3 °F 77% 30.04 in 10.0 mi Calm Calm - N/A   Clear
8:55 AM 77.0 °F - 64.6 °F 65% 30.04 in 10.0 mi NNW 4.6 mph - N/A   Clear
9:55 AM 79.0 °F - 66.9 °F 66% 30.04 in 10.0 mi Variable 5.8 mph - N/A   Partly Cloudy
10:55 AM 81.3 °F 83.6 °F 66.6 °F 61% 30.03 in 10.0 mi East 6.9 mph - N/A   Partly Cloudy
11:55 AM 82.6 °F 84.7 °F 66.0 °F 57% 30.02 in 10.0 mi East 8.1 mph - N/A   Partly Cloudy
12:55 PM 83.5 °F 85.3 °F 65.3 °F 54% 30.00 in 10.0 mi East 9.2 mph - N/A   Mostly Cloudy
1:55 PM 83.7 °F 85.5 °F 65.7 °F 54% 29.98 in 10.0 mi Variable 5.8 mph - N/A   Scattered Clouds
2:55 PM 84.6 °F 85.4 °F 63.1 °F 48% 29.97 in 10.0 mi Variable 5.8 mph - N/A   Clear
3:55 PM 83.3 °F 84.6 °F 64.0 °F 52% 29.96 in 10.0 mi ENE 11.5 mph - N/A   Clear
4:55 PM 82.0 °F 83.3 °F 63.1 °F 53% 29.96 in 10.0 mi East 8.1 mph - N/A   Clear
6:55 PM 76.8 °F - 65.3 °F 67% 29.99 in 10.0 mi ENE 9.2 mph - N/A   Clear
7:55 PM 75.0 °F - 65.3 °F 72% 30.01 in 10.0 mi East 5.8 mph - N/A   Clear
8:55 PM 72.5 °F - 64.6 °F 76% 30.03 in 10.0 mi Calm Calm - N/A   Partly Cloudy
9:55 PM 73.0 °F - 65.5 °F 77% 30.05 in 10.0 mi East 4.6 mph - N/A   Clear
10:55 PM 70.5 °F - 63.9 °F 79% 30.06 in 10.0 mi WNW 3.5 mph - N/A   Clear
11:55 PM 67.8 °F - 64.4 °F 89% 30.04 in 10.0 mi NW 4.6 mph - N/A   Clear